DW5978 Whyalla SA AU current weather conditions

sailwx.info

Wind from 154 at 6 knots gusting 13

Air temperature 17.8° C
Dewpoint 10.6° C

Last reported at 2014-Oct-02 07:47 UTC.
Time now 2014-Oct-02 08:31 UTC

Location: S 33°01' E 137°32'.
View on Google Maps.

See reports from other nearby stations

  
Tides and Currents Weather Stations Pressure Air Temp Water Temp Dewpoint Dewpoint Depression Visibility Wind Speed Wind Dir Waves Ship Positions
date/time (UTC)wind fromknots sea level pressurealtimeterstation pressurevisibilityair tempwater tempwave heightnotes
2014-Oct-02 07:47 154 6 gusting 13 17.8
2014-Oct-02 07:32 198 5 gusting 12 18.3
2014-Oct-02 07:17 139 6 gusting 12 18.3
2014-Oct-02 07:02 167 6 gusting 12 18.3
2014-Oct-02 06:47 148 5 gusting 11 18.9
2014-Oct-02 06:32 193 6 gusting 13 18.9
2014-Oct-02 06:17 159 7 gusting 14 18.9
2014-Oct-02 06:02 148 5 gusting 9 19.4
2014-Oct-02 05:47 167 5 gusting 9 19.4
2014-Oct-02 04:47 170 4 gusting 10 18.9
2014-Oct-02 04:32 134 4 gusting 10 18.9
2014-Oct-02 04:17 187 4 gusting 11 18.9
2014-Oct-02 04:02 161 6 gusting 11 18.9
2014-Oct-02 03:47 207 5 gusting 12 18.9
2014-Oct-02 03:32 167 6 gusting 12 18.9
2014-Oct-02 03:17 135 6 gusting 11 18.3
2014-Oct-02 03:02 150 6 gusting 10 18.3
2014-Oct-02 02:47 201 6 gusting 12 18.3
2014-Oct-02 02:32 198 5 gusting 9 18.3
2014-Oct-02 02:17 176 7 gusting 10 18.3
2014-Oct-02 02:02 172 6 gusting 11 17.8
2014-Oct-02 01:47 221 4 gusting 10 17.8
2014-Oct-02 01:32 123 5 gusting 11 17.8
2014-Oct-02 01:17 153 5 gusting 11 17.2
2014-Oct-02 01:02 132 5 gusting 10 17.2
2014-Oct-02 00:47 160 5 gusting 10 17.2
2014-Oct-02 00:31 139 6 gusting 10 17.2
2014-Oct-02 00:16 174 3 gusting 8 16.7
2014-Oct-02 00:01 156 4 gusting 9 16.1
2014-Oct-01 23:46 141 3 gusting 9 15.6
2014-Oct-01 23:31 162 4 gusting 7 15.6
2014-Oct-01 23:16 150 4 gusting 10 15.0
2014-Oct-01 23:01 091 3 gusting 9 15.0
2014-Oct-01 22:46 157 4 gusting 8 14.4
2014-Oct-01 22:31 143 3 gusting 8 14.4
2014-Oct-01 22:16 153 2 gusting 7 13.9
2014-Oct-01 22:01 154 4 gusting 6 13.3
2014-Oct-01 21:46 145 11.1
2014-Oct-01 21:31 145 9.4
2014-Oct-01 21:16 145 8.3
2014-Oct-01 21:01 145 8.3
2014-Oct-01 20:46 145 7.2
2014-Oct-01 20:31 145 7.8
2014-Oct-01 20:16 145 0 gusting 1 7.2
2014-Oct-01 20:01 145 7.2
2014-Oct-01 19:46 145 0 gusting 1 7.2
2014-Oct-01 19:31 145 7.2
2014-Oct-01 19:16 148 0 gusting 1 7.2
2014-Oct-01 19:01 148 0 gusting 1 7.2
2014-Oct-01 18:46 148 0 gusting 1 8.9
2014-Oct-01 18:31 148 10.0
2014-Oct-01 18:16 148 10.6
2014-Oct-01 18:01 148 10.0
2014-Oct-01 17:46 148 10.0
2014-Oct-01 17:31 146 10.0
2014-Oct-01 17:16 148 10.6
2014-Oct-01 17:00 148 11.1
2014-Oct-01 16:45 148 0 gusting 2 11.7
2014-Oct-01 16:30 148 11.7
2014-Oct-01 16:15 151 12.2
2014-Oct-01 16:00 128 0 gusting 2 12.2
2014-Oct-01 15:45 132 0 gusting 5 12.8
2014-Oct-01 15:30 136 1 gusting 2 12.8
2014-Oct-01 15:15 150 1 gusting 6 12.8
2014-Oct-01 15:00 162 2 gusting 5 13.3
2014-Oct-01 14:45 156 2 gusting 6 13.3
2014-Oct-01 14:30 133 2 gusting 6 13.3
2014-Oct-01 14:15 153 1 gusting 6 13.3
2014-Oct-01 14:00 165 2 gusting 7 13.3
2014-Oct-01 13:45 162 2 gusting 8 13.9
2014-Oct-01 13:30 176 2 gusting 6 13.9
2014-Oct-01 13:15 142 4 gusting 13 13.9
2014-Oct-01 13:00 138 5 gusting 9 13.9
2014-Oct-01 12:45 167 5 gusting 9 13.9
2014-Oct-01 12:30 166 3 gusting 11 13.9
2014-Oct-01 12:15 140 5 gusting 10 13.9
2014-Oct-01 12:00 150 5 gusting 10 14.4
2014-Oct-01 11:45 145 5 gusting 12 14.4
2014-Oct-01 11:30 156 3 gusting 9 14.4
2014-Oct-01 11:15 142 4 gusting 9 14.4
2014-Oct-01 11:00 137 6 gusting 11 14.4
2014-Oct-01 10:45 143 4 gusting 10 14.4
2014-Oct-01 10:30 169 6 gusting 11 14.4
2014-Oct-01 10:15 156 6 gusting 11 14.4
2014-Oct-01 10:00 215 5 gusting 9 14.4
2014-Oct-01 09:45 165 5 gusting 14 14.4
2014-Oct-01 09:30 193 5 gusting 13 14.4
2014-Oct-01 09:15 195 6 gusting 11 15.0
2014-Oct-01 09:00 162 6 gusting 12 15.0
2014-Oct-01 08:45 221 6 gusting 13 15.6
2014-Oct-01 08:30 165 6 gusting 12 16.1
2014-Oct-01 08:00 185 8 gusting 14 16.7
2014-Oct-01 07:45 145 6 gusting 13 16.7
2014-Oct-01 07:30 179 7 gusting 14 17.2
2014-Oct-01 07:15 201 10 gusting 16 17.2
2014-Oct-01 07:00 155 6 gusting 15 17.2
2014-Oct-01 06:45 179 7 gusting 15 17.8
2014-Oct-01 06:30 139 8 gusting 12 17.8
2014-Oct-01 06:16 141 6 gusting 15 17.8
2014-Oct-01 06:00 153 7 gusting 13 17.8
2014-Oct-01 05:45 174 7 gusting 14 17.8
2014-Oct-01 05:30 180 6 gusting 14 17.8
2014-Oct-01 05:15 174 6 gusting 13 17.8
2014-Oct-01 05:00 193 7 gusting 12 17.8
2014-Oct-01 04:45 166 6 gusting 14 17.8
2014-Oct-01 04:30 179 5 gusting 12 17.8
2014-Oct-01 04:14 201 6 gusting 13 17.8
2014-Oct-01 03:59 187 6 gusting 11 17.8
2014-Oct-01 03:44 227 7 gusting 12 17.2
2014-Oct-01 03:29 180 6 gusting 13 17.2
2014-Oct-01 03:14 153 6 gusting 15 17.2
2014-Oct-01 02:59 187 6 gusting 13 17.2
2014-Oct-01 02:44 160 7 gusting 13 16.7
2014-Oct-01 02:29 195 5 gusting 14 16.1
2014-Oct-01 02:14 109 7 gusting 15 16.1
2014-Oct-01 01:59 153 6 gusting 13 16.7
2014-Oct-01 01:44 214 6 gusting 15 16.1
2014-Oct-01 01:29 160 7 gusting 18 16.1
2014-Oct-01 01:14 103 6 gusting 12 16.1
2014-Oct-01 00:59 117 6 gusting 12 16.1
2014-Oct-01 00:44 151 6 gusting 13 15.6
2014-Oct-01 00:29 120 6 gusting 13 15.6
2014-Oct-01 00:14 137 6 gusting 15 15.0
2014-Sep-30 23:59 131 6 gusting 13 15.0
2014-Sep-30 23:44 140 6 gusting 13 15.0
2014-Sep-30 23:29 150 5 gusting 10 15.0
2014-Sep-30 23:14 136 6 gusting 12 15.0
2014-Sep-30 22:59 130 3 gusting 10 15.0
2014-Sep-30 22:44 159 6 gusting 12 14.4
2014-Sep-30 22:29 150 5 gusting 9 14.4
2014-Sep-30 22:14 111 4 gusting 9 14.4
2014-Sep-30 21:59 115 3 gusting 9 13.9
2014-Sep-30 21:44 156 6 gusting 11 13.9
2014-Sep-30 21:29 134 6 gusting 9 13.9
2014-Sep-30 21:14 137 5 gusting 9 13.3
2014-Sep-30 20:59 143 4 gusting 7 13.3
2014-Sep-30 20:43 103 2 gusting 8 13.3
2014-Sep-30 20:28 151 3 gusting 6 13.3
2014-Sep-30 20:13 159 4 gusting 7 13.3
2014-Sep-30 19:58 176 3 gusting 9 13.3
2014-Sep-30 19:43 205 1 gusting 3 12.2
2014-Sep-30 19:28 240 3 gusting 6 12.2
2014-Sep-30 19:13 225 1 gusting 4 12.2
2014-Sep-30 18:58 218 2 gusting 6 12.2
2014-Sep-30 18:43 219 3 gusting 6 12.2
2014-Sep-30 18:28 240 1 gusting 6 12.2
2014-Sep-30 18:13 231 2 gusting 5 11.7
2014-Sep-30 17:58 226 2 gusting 6 11.7
2014-Sep-30 17:43 198 2 gusting 5 12.2
2014-Sep-30 17:28 207 2 gusting 5 12.2
2014-Sep-30 17:13 235 2 gusting 6 12.2
2014-Sep-30 16:58 221 3 gusting 5 12.2
2014-Sep-30 16:43 228 1 gusting 5 11.7
2014-Sep-30 16:28 249 0 gusting 3 11.1
2014-Sep-30 16:13 260 0 gusting 2 11.1
2014-Sep-30 15:58 255 1 gusting 3 11.1
2014-Sep-30 15:43 231 2 gusting 4 11.7
2014-Sep-30 15:28 253 11.7
2014-Sep-30 15:13 269 0 gusting 2 12.2
2014-Sep-30 14:58 243 1 gusting 3 12.2
2014-Sep-30 14:43 215 2 gusting 6 12.8
2014-Sep-30 14:28 240 3 gusting 5 12.8
2014-Sep-30 14:13 217 3 gusting 7 13.3
2014-Sep-30 13:58 232 3 gusting 8 13.9
2014-Sep-30 13:45 219 4 gusting 9 13.9
2014-Sep-30 13:27 222 6 gusting 11 13.9
2014-Sep-30 13:12 212 5 gusting 13 14.4
2014-Sep-30 12:57 217 6 gusting 11 14.4
2014-Sep-30 12:42 235 6 gusting 14 14.4
2014-Sep-30 12:27 221 4 gusting 7 14.4
2014-Sep-30 12:12 195 4 gusting 10 14.4
2014-Sep-30 11:57 217 5 gusting 14 15.0
2014-Sep-30 11:42 180 6 gusting 14 15.0
2014-Sep-30 11:27 264 6 gusting 13 15.0
2014-Sep-30 11:12 170 8 gusting 14 15.6
2014-Sep-30 10:57 177 8 gusting 13 15.6
2014-Sep-30 10:42 193 6 gusting 13 15.6
2014-Sep-30 10:27 165 10 gusting 16 15.6
2014-Sep-30 10:12 177 6 gusting 13 15.6
2014-Sep-30 09:57 210 5 gusting 16 15.6
2014-Sep-30 09:42 158 8 gusting 15 16.1
2014-Sep-30 09:27 190 8 gusting 14 16.1
2014-Sep-30 09:12 145 10 gusting 20 16.1
2014-Sep-30 08:57 181 6 gusting 17 16.1
2014-Sep-30 08:42 132 8 gusting 17 16.7
2014-Sep-30 08:27 145 11 gusting 19 16.7
2014-Sep-30 08:12 145 9 gusting 20 17.2